Las Vegas, NV

1:30 AM PST on February 28, 2017 (GMT -0800)
McCarran International

Weather History for KLAS - April, 2013

Change the Weather History Date:

Thursday, April 18, 2013

  Actual Average Record
Temperature  
Mean Temperature 58 °F 68 °F  
Max Temperature 68 °F 79 °F 98 °F (1946)
Min Temperature 48 °F 57 °F 35 °F (1963)
Degree Days  
Heating Degree Days 7 2  
Month to date heating degree days 32 50  
Since 1 July heating degree days 1755 1930  
Cooling Degree Days 0 4  
Month to date cooling degree days 75 55  
Year to date cooling degree days 161 86  
Growing Degree Days 8 (Base 50)    
Moisture  
Dew Point 10 °F    
Average Humidity 17    
Maximum Humidity 26    
Minimum Humidity 8    
Precipitation  
Precipitation 0.00 in 0.00 in 0.30 in (1985)
Month to date precipitation 0.03 0.11  
Year to date precipitation 0.61 1.85  
Snow  
Snow 0.00 in 0.00 in 0.00 in ()
Month to date snowfall 0.0 0.0  
Since 1 July snowfall T 0.3  
Snow Depth 0.00 in    
Sea Level Pressure  
Sea Level Pressure 30.19 in    
Wind  
Wind Speed 6 mph (East)    
Max Wind Speed 15 mph    
Max Gust Speed 21 mph    
Visibility 10 miles    
Events      
T = Trace of Precipitation, MM = Missing Value Source: NWS Daily Summary

Daily Weather History Graph

Daily Weather History Graph

Search for Another Location

Airport or City:

Trip Planner

Search our weather history database for the weather conditions in past years. The results will help you decide how hot, cold, wet, or windy it might be!

Date:

Astronomy

Apr. 18, 2013 Rise Set
Actual Time 6:03 AM PDT 7:17 PM PDT
Civil Twilight 5:36 AM PDT 7:43 PM PDT
Nautical Twilight 5:04 AM PDT 8:15 PM PDT
Astronomical Twilight 4:31 AM PDT 8:48 PM PDT
Moon 12:20 PM PDT (4/18) 1:32 AM PDT (4/18)
Length of Visible Light 14h 07m
Length of Day
13h 14m
First Quarter, 53% of the Moon is Illuminated
Apr 18
First Quarter
Apr 25
Full
May 2
Last Quarter
May 9
New
May 17
First Quarter

Hourly Weather History & Observations

Time (PDT) Temp. Dew Point Humidity Pressure Visibility Wind Dir Wind Speed Gust Speed Precip Events Conditions
12:56 AM 53.1 °F 19.0 °F 26% 30.17 in 10.0 mi NE 8.1 mph - N/A   Clear
1:56 AM 53.1 °F 14.0 °F 21% 30.17 in 10.0 mi ENE 6.9 mph - N/A   Clear
2:56 AM 52.0 °F 10.9 °F 19% 30.17 in 10.0 mi NW 4.6 mph - N/A   Clear
3:56 AM 51.1 °F 10.0 °F 19% 30.18 in 10.0 mi NE 6.9 mph - N/A   Clear
4:56 AM 50.0 °F 10.0 °F 20% 30.19 in 10.0 mi NE 4.6 mph - N/A   Clear
5:56 AM 48.0 °F 10.0 °F 22% 30.21 in 10.0 mi Calm Calm - N/A   Clear
6:56 AM 50.0 °F 15.1 °F 25% 30.23 in 10.0 mi ENE 3.5 mph - N/A   Clear
7:56 AM 52.0 °F 15.1 °F 23% 30.25 in 10.0 mi ENE 6.9 mph - N/A   Clear
8:56 AM 55.0 °F 12.0 °F 18% 30.25 in 10.0 mi ENE 6.9 mph - N/A   Clear
9:56 AM 57.0 °F 10.0 °F 15% 30.25 in 10.0 mi East 10.4 mph - N/A   Clear
10:56 AM 59.0 °F 10.9 °F 15% 30.25 in 10.0 mi ENE 10.4 mph 16.1 mph N/A   Clear
11:56 AM 59.0 °F 10.0 °F 14% 30.24 in 10.0 mi Variable 3.5 mph - N/A   Clear
12:56 PM 61.0 °F 9.0 °F 13% 30.22 in 10.0 mi South 5.8 mph - N/A   Clear
1:56 PM 63.0 °F 6.1 °F 11% 30.19 in 10.0 mi East 5.8 mph - N/A   Clear
2:56 PM 66.0 °F 5.0 °F 9% 30.16 in 10.0 mi East 9.2 mph - N/A   Clear
3:56 PM 68.0 °F 5.0 °F 8% 30.14 in 10.0 mi NNE 9.2 mph - N/A   Clear
4:56 PM 66.9 °F 6.1 °F 9% 30.13 in 10.0 mi Variable 3.5 mph - N/A   Clear
5:56 PM 66.0 °F 5.0 °F 9% 30.13 in 10.0 mi East 8.1 mph - N/A   Clear
6:56 PM 66.0 °F 5.0 °F 9% 30.13 in 10.0 mi SSE 4.6 mph - N/A   Clear
7:56 PM 64.0 °F 7.0 °F 11% 30.14 in 10.0 mi South 5.8 mph - N/A   Clear
8:56 PM 63.0 °F 8.1 °F 11% 30.16 in 10.0 mi SSW 6.9 mph - N/A   Clear
9:56 PM 61.0 °F 9.0 °F 13% 30.16 in 10.0 mi SSW 9.2 mph - N/A   Clear
10:56 PM 57.9 °F 9.0 °F 14% 30.17 in 10.0 mi South 4.6 mph - N/A   Clear
11:56 PM 57.0 °F 9.0 °F 15% 30.17 in 10.0 mi SW 6.9 mph - N/A   Clear